Weather in Shekhman'

Russia / Tambov Oblast     52°30′50″N   40°27′38″E
temp.,
°C
wind,
m/s
gust,
m/s
humid.,
%
clouds,
%
prec.,
mm/h
press.,
hPa
HPBL,
m
3 march, wed
wed300:00−1nw5119592 0.2 1009383
03:00−3nw5119571 0.2 1011332
06:00−1nw61293100 0.1 1011715
09:00−2nnw71185100 0.3 1014893
12:00−2nnw6108434 0.0 1016786
15:00−2nw6108331 0.0 1017899
18:00−4wnw488927 0.0 1017169
21:00−2w5119249 0.0 1017410
4 march, thu
thu400:00−2w61193100 0.1 1014452
03:00−2w61191100 0.1 1013748
06:00−2wsw71592100 0.1 1011591
09:00−1wsw8158896 0.1 1009541
12:00+1wsw8158667 0.0 1007825
15:00+1wsw7148681 0.0 1006859
18:00+1wsw61388100 0.0 1004681
21:00+1wsw51291100 0.0 1003585
5 march, fri
fri500:00+1sw51198100 0.6 1001383
03:00+1w61298100 2.2 1001421
06:000wnw61197100 1.0 1002597
09:00−3n5793100 1.1 1005405
12:00−2n349095 0.0 1007500
15:00−1nw348692 0.1 1010576
18:00−4wnw239078 0.1 101137
21:00−4nw229189 0.1 101327
6 march, sat
sat600:00−5nnw3495100 0.0 1014121
03:00−7n3589100 0.0 1015156
06:00−8n2386100 0.0 101555
09:00−8n2486100 0.0 1016173
12:00−6nnw237810 0.0 1016335
15:00−4wnw12725 0.0 1015458
18:00−6se128238 0.0 101521
21:00−7ne349569 0.4 1017186
7 march, sun
sun700:00−8n5891100 0.6 1018412
03:00−11wnw238978 0.6 101871
06:00−11sw48920 0.0 1017202
09:00−7sw7147928 0.0 1014668
12:00−4sw101664100 0.0 10101146
15:00−2sw101867100 0.0 10061349
18:00−2wsw112084100 0.1 10021298
21:00−2wsw91977100 0.2 10001123